Coffeyville, KS

10:06 AM CST on December 15, 2017 (GMT -0600)
Coffeyville Municipal

Weather History for KCFV - September, 2013

Change the Weather History Date:

Thursday, September 12, 2013

  Actual Average Record
Temperature  
Mean Temperature 80 °F -  
Max Temperature 89 °F 83 °F 96 °F (2011)
Min Temperature 71 °F 58 °F 51 °F (2001)
Cooling Degree Days 14    
Growing Degree Days 30 (Base 50)    
Moisture  
Dew Point 68 °F    
Average Humidity 70    
Maximum Humidity 87    
Minimum Humidity 49    
Precipitation  
Precipitation 0.00 in - - ()
Sea Level Pressure  
Sea Level Pressure 30.06 in    
Wind  
Wind Speed 4 mph (NNE)    
Max Wind Speed 13 mph    
Max Gust Speed -    
Visibility 9 miles    
Events Rain    
Averages and records for this station are not official NWS values.
T = Trace of Precipitation, MM = Missing Value Source: NWS Daily Summary

Daily Weather History Graph

Daily Weather History Graph

Search for Another Location

Airport or City:

Trip Planner

Search our weather history database for the weather conditions in past years. The results will help you decide how hot, cold, wet, or windy it might be!

Date:

Astronomy

Sep. 12, 2013 Rise Set
Actual Time 7:02 AM CDT 7:34 PM CDT
Civil Twilight 6:36 AM CDT 8:00 PM CDT
Nautical Twilight 6:05 AM CDT 8:30 PM CDT
Astronomical Twilight 5:33 AM CDT 9:02 PM CDT
Moon 2:21 PM CDT (9/12) No Moon Set
Length of Visible Light 13h 24m
Length of Day
12h 31m
Waxing Crescent, 50% of the Moon is Illuminated
Sep 12
Waxing Crescent
Sep 12
First Quarter
Sep 19
Full
Sep 26
Last Quarter
Oct 4
New

Hourly Weather History & Observations

Time (CDT) Temp. Heat Index Dew Point Humidity Pressure Visibility Wind Dir Wind Speed Gust Speed Precip Events Conditions
12:52 AM 73.0 °F - 66.0 °F 79% 30.04 in 10.0 mi Calm Calm - N/A   Clear
1:52 AM 73.0 °F - 66.0 °F 79% 30.04 in 9.0 mi SSE 4.6 mph - N/A   Clear
2:52 AM 73.0 °F - 66.0 °F 79% 30.04 in 8.0 mi Calm Calm - N/A   Clear
3:52 AM 72.0 °F - 66.0 °F 81% 30.04 in 8.0 mi Calm Calm - N/A   Clear
4:52 AM 72.0 °F - 66.0 °F 81% 30.05 in 7.0 mi Calm Calm - N/A   Clear
5:52 AM 71.1 °F - 66.9 °F 87% 30.06 in 7.0 mi NNW 3.5 mph - N/A   Clear
6:52 AM 71.1 °F - 66.0 °F 84% 30.07 in 7.0 mi Calm Calm - N/A   Clear
7:52 AM 71.1 °F - 66.9 °F 87% 30.09 in 5.0 mi Calm Calm - N/A   Clear
8:52 AM 78.1 °F - 68.0 °F 71% 30.09 in 10.0 mi NE 5.8 mph - N/A   Clear
9:52 AM 81.0 °F 84.1 °F 69.1 °F 67% 30.10 in 10.0 mi NE 9.2 mph - N/A   Clear
10:52 AM 82.9 °F 86.5 °F 69.1 °F 63% 30.10 in 10.0 mi NNE 8.1 mph - N/A   Clear
11:52 AM 86.0 °F 90.1 °F 69.1 °F 57% 30.10 in 10.0 mi NE 8.1 mph - N/A   Clear
12:52 PM 86.0 °F 90.1 °F 69.1 °F 57% 30.09 in 10.0 mi North 10.4 mph - N/A   Clear
1:52 PM 86.0 °F 90.1 °F 69.1 °F 57% 30.09 in 10.0 mi NNE 11.5 mph - 0.00 in Rain Light Rain
2:52 PM 88.0 °F 91.4 °F 68.0 °F 51% 30.06 in 10.0 mi NNE 10.4 mph - 0.00 in   Partly Cloudy
3:52 PM 88.0 °F 91.4 °F 68.0 °F 51% 30.05 in 10.0 mi NNE 12.7 mph - N/A   Clear
4:52 PM 87.1 °F 89.2 °F 66.0 °F 49% 30.04 in 10.0 mi North 11.5 mph - N/A   Clear
5:52 PM 87.1 °F 89.9 °F 66.9 °F 51% 30.02 in 10.0 mi NNE 11.5 mph - N/A   Clear
6:52 PM 82.0 °F 84.9 °F 68.0 °F 62% 30.04 in 10.0 mi North 9.2 mph - N/A   Clear
7:52 PM 79.0 °F - 68.0 °F 69% 30.04 in 10.0 mi North 6.9 mph - N/A   Clear
8:52 PM 75.9 °F - 68.0 °F 76% 30.06 in 10.0 mi North 3.5 mph - N/A   Clear
9:52 PM 75.9 °F - 68.0 °F 76% 30.06 in 10.0 mi NNE 3.5 mph - N/A   Overcast
10:52 PM 75.0 °F - 68.0 °F 79% 30.07 in 10.0 mi North 3.5 mph - N/A   Overcast
11:52 PM 73.0 °F - 68.0 °F 84% 30.06 in 10.0 mi Calm Calm - N/A   Clear